This demonstration page uses our WeatherBlox Daily Observations layout. Learn more.

36.17497, -115.13722

Hourly Observations for November 11, 2019

Temp ( °F °C ) Dew Point ( °F °C ) Humidity (%) Winds ( mph kmh ) Pressure ( in mb ) Visibility ( mi km ) Precip ( " mm )
12:53 am 00:53 Clear 53 11.7 18 -7.8 25 25 WSW 3 6 30.05 1018 10 16.0934 0 0
1:53 am 01:53 Clear 53 11.7 15 -9.4 22 22 WNW 5 7 30.06 1018 10 16.0934 0 0
2:53 am 02:53 Clear 52 11.1 16 -8.9 24 24 WNW 5 7 30.06 1018 10 16.0934 0 0
3:53 am 03:53 Clear 54 12.2 10 -12.2 17 17 WNW 8 13 30.06 1018 10 16.0934 0 0
4:53 am 04:53 Clear 56 13.3 10 -12.2 16 16 NW 8 13 30.08 1019 10 16.0934 0 0
5:53 am 05:53 Clear 60 15.6 10 -12.2 14 14 N 8 13 30.09 1019 10 16.0934 0 0
6:53 am 06:53 Sunny 54 12.2 12 -11.1 19 19 Calm 30.13 1020 10 16.0934 0 0
7:53 am 07:53 Sunny 60 15.6 15 -9.4 17 17 Calm 30.16 1021 10 16.0934 0 0
8:53 am 08:53 Sunny 65 18.3 15 -9.4 14 14 S 3 6 30.17 1022 10 16.0934 0 0
9:53 am 09:53 Sunny 70 21.1 14 -10 11 11 Calm 30.17 1022 10 16.0934 0 0
10:53 am 10:53 Sunny 72 22.2 16 -8.9 12 12 ESE 7 11 30.16 1021 10 16.0934 0 0
11:53 am 11:53 Sunny 75 23.9 16 -8.9 10 10 ESE 7 11 30.12 1020 10 16.0934 0 0
12:53 pm 12:53 Sunny 77 25 17 -8.3 10 10 ENE 9 15 30.11 1020 10 16.0934 0 0
1:53 pm 13:53 Sunny 78 25.6 21 -6.1 12 12 E 6 9 30.1 1019 10 16.0934 0 0
2:53 pm 14:53 Sunny 79 26.1 18 -7.8 10 10 NE 7 11 30.09 1019 10 16.0934 0 0
3:53 pm 15:53 Sunny 77 25 22 -5.6 13 13 ENE 10 17 30.1 1019 10 16.0934 0 0
4:53 pm 16:53 Clear 75 23.9 22 -5.6 14 14 Calm 30.1 1019 10 16.0934 0 0
5:53 pm 17:53 Clear 71 21.7 23 -5 16 16 NNW 6 9 30.11 1020 10 16.0934 0 0
6:53 pm 18:53 Clear 70 21.1 23 -5 17 17 NNW 8 13 30.13 1020 10 16.0934 0 0
7:53 pm 19:53 Clear 67 19.4 24 -4.4 20 20 Calm 30.15 1021 10 16.0934 0 0
8:53 pm 20:53 Clear 62 16.7 25 -3.9 24 24 S 5 7 30.16 1021 10 16.0934 0 0
9:53 pm 21:53 Clear 59 15 25 -3.9 27 27 WNW 7 11 30.16 1022 10 16.0934 0 0
10:53 pm 22:53 Clear 57 13.9 25 -3.9 29 29 NW 3 6 30.18 1022 10 16.0934 0 0
11:53 pm 23:53 Clear 57 13.9 24 -4.4 28 28 Calm 30.18 1022 10 16.0934 0 0

Powered by AerisWeather